Year,Month,Day,Hour,Minute,Value (Times are PST for temperature in C)
2006,06,12,00,00,14.60
2006,06,12,00,01,14.60
2006,06,12,00,02,14.60
2006,06,12,00,03,14.60
2006,06,12,00,04,14.60
2006,06,12,00,05,14.60
2006,06,12,00,06,14.60
2006,06,12,00,07,14.60
2006,06,12,00,08,14.60
2006,06,12,00,09,14.60
2006,06,12,00,10,14.50
2006,06,12,00,11,14.50
2006,06,12,00,12,14.50
2006,06,12,00,13,14.50
2006,06,12,00,14,14.50
2006,06,12,00,15,14.40
2006,06,12,00,16,14.40
2006,06,12,00,17,14.40
2006,06,12,00,18,14.40
2006,06,12,00,19,14.40
2006,06,12,00,20,14.40
2006,06,12,00,21,14.40
2006,06,12,00,22,14.40
2006,06,12,00,23,14.40
2006,06,12,00,24,14.40
2006,06,12,00,25,14.40
2006,06,12,00,26,14.30
2006,06,12,00,27,14.30
2006,06,12,00,28,14.30
2006,06,12,00,29,14.30
2006,06,12,00,30,14.20
2006,06,12,00,31,14.20
2006,06,12,00,32,14.20
2006,06,12,00,33,14.20
2006,06,12,00,34,14.20
2006,06,12,00,35,14.20
2006,06,12,00,36,14.10
2006,06,12,00,37,14.10
2006,06,12,00,38,14.10
2006,06,12,00,39,14.10
2006,06,12,00,40,14.00
2006,06,12,00,41,14.00
2006,06,12,00,42,14.00
2006,06,12,00,43,14.00
2006,06,12,00,44,14.00
2006,06,12,00,45,14.00
2006,06,12,00,46,13.90
2006,06,12,00,47,13.90
2006,06,12,00,48,13.90
2006,06,12,00,49,13.90
2006,06,12,00,50,13.90
2006,06,12,00,51,13.90
2006,06,12,00,52,13.80
2006,06,12,00,53,13.80
2006,06,12,00,54,13.80
2006,06,12,00,55,13.80
2006,06,12,00,56,13.80
2006,06,12,00,57,13.80
2006,06,12,00,58,13.70
2006,06,12,00,59,13.70
2006,06,12,01,00,13.70
2006,06,12,01,01,13.70
2006,06,12,01,02,13.70
2006,06,12,01,03,13.70
2006,06,12,01,04,13.70
2006,06,12,01,05,13.70
2006,06,12,01,06,13.70
2006,06,12,01,07,13.70
2006,06,12,01,08,13.70
2006,06,12,01,09,13.70
2006,06,12,01,10,13.70
2006,06,12,01,11,13.70
2006,06,12,01,12,13.70
2006,06,12,01,13,13.60
2006,06,12,01,14,13.60
2006,06,12,01,15,13.60
2006,06,12,01,16,13.60
2006,06,12,01,17,13.60
2006,06,12,01,18,13.60
2006,06,12,01,19,13.60
2006,06,12,01,20,13.60
2006,06,12,01,21,13.60
2006,06,12,01,22,13.60
2006,06,12,01,23,13.60
2006,06,12,01,24,13.60
2006,06,12,01,25,13.60
2006,06,12,01,26,13.60
2006,06,12,01,27,13.60
2006,06,12,01,28,13.60
2006,06,12,01,29,13.60
2006,06,12,01,30,13.50
2006,06,12,01,31,13.50
2006,06,12,01,32,13.50
2006,06,12,01,33,13.50
2006,06,12,01,34,13.50
2006,06,12,01,35,13.50
2006,06,12,01,36,13.40
2006,06,12,01,37,13.40
2006,06,12,01,38,13.40
2006,06,12,01,39,13.40
2006,06,12,01,40,13.30
2006,06,12,01,41,13.30
2006,06,12,01,42,13.30
2006,06,12,01,43,13.30
2006,06,12,01,44,13.30
2006,06,12,01,45,13.30
2006,06,12,01,46,13.30
2006,06,12,01,47,13.30
2006,06,12,01,48,13.20
2006,06,12,01,49,13.20
2006,06,12,01,50,13.20
2006,06,12,01,51,13.20
2006,06,12,01,52,13.20
2006,06,12,01,53,13.20
2006,06,12,01,54,13.20
2006,06,12,01,55,13.20
2006,06,12,01,56,13.20
2006,06,12,01,57,13.20
2006,06,12,01,58,13.10
2006,06,12,01,59,13.10
2006,06,12,02,00,13.10
2006,06,12,02,01,13.10
2006,06,12,02,02,13.10
2006,06,12,02,03,13.10
2006,06,12,02,04,13.10
2006,06,12,02,05,13.10
2006,06,12,02,06,13.10
2006,06,12,02,07,13.20
2006,06,12,02,08,13.20
2006,06,12,02,09,13.20
2006,06,12,02,10,13.20
2006,06,12,02,11,13.20
2006,06,12,02,12,13.20
2006,06,12,02,13,13.20
2006,06,12,02,14,13.10
2006,06,12,02,15,13.10
2006,06,12,02,16,13.10
2006,06,12,02,17,13.10
2006,06,12,02,18,13.10
2006,06,12,02,19,13.10
2006,06,12,02,20,13.00
2006,06,12,02,21,13.00
2006,06,12,02,22,13.00
2006,06,12,02,23,13.00
2006,06,12,02,24,13.00
2006,06,12,02,25,13.00
2006,06,12,02,26,13.00
2006,06,12,02,27,12.90
2006,06,12,02,28,12.90
2006,06,12,02,29,12.90
2006,06,12,02,30,12.90
2006,06,12,02,31,12.90
2006,06,12,02,32,12.90
2006,06,12,02,33,12.80
2006,06,12,02,34,12.80
2006,06,12,02,35,12.80
2006,06,12,02,36,12.80
2006,06,12,02,37,12.80
2006,06,12,02,38,12.80
2006,06,12,02,39,12.80
2006,06,12,02,40,12.80
2006,06,12,02,41,12.80
2006,06,12,02,42,12.80
2006,06,12,02,43,12.80
2006,06,12,02,44,12.80
2006,06,12,02,45,12.80
2006,06,12,02,46,12.80
2006,06,12,02,47,12.80
2006,06,12,02,48,12.80
2006,06,12,02,49,12.80
2006,06,12,02,50,12.70
2006,06,12,02,51,12.70
2006,06,12,02,52,12.70
2006,06,12,02,53,12.70
2006,06,12,02,54,12.70
2006,06,12,02,55,12.70
2006,06,12,02,56,12.70
2006,06,12,02,57,12.70
2006,06,12,02,58,12.60
2006,06,12,02,59,12.60
2006,06,12,03,00,12.60
2006,06,12,03,01,12.70
2006,06,12,03,02,12.70
2006,06,12,03,03,12.70
2006,06,12,03,04,12.70
2006,06,12,03,05,12.70
2006,06,12,03,06,12.70
2006,06,12,03,07,12.70
2006,06,12,03,08,12.70
2006,06,12,03,09,12.60
2006,06,12,03,10,12.60
2006,06,12,03,11,12.60
2006,06,12,03,12,12.60
2006,06,12,03,13,12.60
2006,06,12,03,14,12.60
2006,06,12,03,15,12.60
2006,06,12,03,16,12.60
2006,06,12,03,17,12.60
2006,06,12,03,18,12.60
2006,06,12,03,19,12.60
2006,06,12,03,20,12.60
2006,06,12,03,21,12.60
2006,06,12,03,22,12.60
2006,06,12,03,23,12.60
2006,06,12,03,24,12.60
2006,06,12,03,25,12.60
2006,06,12,03,26,12.60
2006,06,12,03,27,12.60
2006,06,12,03,28,12.50
2006,06,12,03,29,12.50
2006,06,12,03,30,12.50
2006,06,12,03,31,12.50
2006,06,12,03,32,12.50
2006,06,12,03,33,12.40
2006,06,12,03,34,12.40
2006,06,12,03,35,12.40
2006,06,12,03,36,12.40
2006,06,12,03,37,12.30
2006,06,12,03,38,12.30
2006,06,12,03,39,12.30
2006,06,12,03,40,12.30
2006,06,12,03,41,12.30
2006,06,12,03,42,12.30
2006,06,12,03,43,12.30
2006,06,12,03,44,12.30
2006,06,12,03,45,12.30
2006,06,12,03,46,12.30
2006,06,12,03,47,12.30
2006,06,12,03,48,12.30
2006,06,12,03,49,12.30
2006,06,12,03,50,12.30
2006,06,12,03,51,12.30
2006,06,12,03,52,12.30
2006,06,12,03,53,12.30
2006,06,12,03,54,12.30
2006,06,12,03,55,12.30
2006,06,12,03,56,12.30
2006,06,12,03,57,12.30
2006,06,12,03,58,12.30
2006,06,12,03,59,12.30
2006,06,12,04,00,12.30
2006,06,12,04,01,12.30
2006,06,12,04,02,12.30
2006,06,12,04,03,12.30
2006,06,12,04,04,12.30
2006,06,12,04,05,12.30
2006,06,12,04,06,12.30
2006,06,12,04,07,12.30
2006,06,12,04,08,12.30
2006,06,12,04,09,12.30
2006,06,12,04,10,12.30
2006,06,12,04,11,12.30
2006,06,12,04,12,12.30
2006,06,12,04,13,12.30
2006,06,12,04,14,12.30
2006,06,12,04,15,12.30
2006,06,12,04,16,12.30
2006,06,12,04,17,12.30
2006,06,12,04,18,12.30
2006,06,12,04,19,12.20
2006,06,12,04,20,12.20
2006,06,12,04,21,12.10
2006,06,12,04,22,12.10
2006,06,12,04,23,12.10
2006,06,12,04,24,12.10
2006,06,12,04,25,12.00
2006,06,12,04,26,12.00
2006,06,12,04,27,12.00
2006,06,12,04,28,12.00
2006,06,12,04,29,11.90
2006,06,12,04,30,11.90
2006,06,12,04,31,11.90
2006,06,12,04,32,11.90
2006,06,12,04,33,11.90
2006,06,12,04,34,11.90
2006,06,12,04,35,11.90
2006,06,12,04,36,11.90
2006,06,12,04,37,11.90
2006,06,12,04,38,11.90
2006,06,12,04,39,11.90
2006,06,12,04,40,11.90
2006,06,12,04,41,11.80
2006,06,12,04,42,11.80
2006,06,12,04,43,11.80
2006,06,12,04,44,11.80
2006,06,12,04,45,11.80
2006,06,12,04,46,11.80
2006,06,12,04,47,11.80
2006,06,12,04,48,11.80
2006,06,12,04,49,11.80
2006,06,12,04,50,11.80
2006,06,12,04,51,11.80
2006,06,12,04,52,11.80
2006,06,12,04,53,11.80
2006,06,12,04,54,11.80
2006,06,12,04,55,11.80
2006,06,12,04,56,11.80
2006,06,12,04,57,11.80
2006,06,12,04,58,11.80
2006,06,12,04,59,11.80
2006,06,12,05,00,11.80
2006,06,12,05,01,11.80
2006,06,12,05,02,11.80
2006,06,12,05,03,11.80
2006,06,12,05,04,11.80
2006,06,12,05,05,11.80
2006,06,12,05,06,11.80
2006,06,12,05,07,11.80
2006,06,12,05,08,11.80
2006,06,12,05,09,11.80
2006,06,12,05,10,11.80
2006,06,12,05,11,11.80
2006,06,12,05,12,11.80
2006,06,12,05,13,11.80
2006,06,12,05,14,11.80
2006,06,12,05,15,11.80
2006,06,12,05,16,11.80
2006,06,12,05,17,11.80
2006,06,12,05,18,11.80
2006,06,12,05,19,11.80
2006,06,12,05,20,11.80
2006,06,12,05,21,11.80
2006,06,12,05,22,11.80
2006,06,12,05,23,11.80
2006,06,12,05,24,11.80
2006,06,12,05,25,11.80
2006,06,12,05,26,11.80
2006,06,12,05,27,11.80
2006,06,12,05,28,11.80
2006,06,12,05,29,11.80
2006,06,12,05,30,11.80
2006,06,12,05,31,11.80
2006,06,12,05,32,11.80
2006,06,12,05,33,11.80
2006,06,12,05,34,11.80
2006,06,12,05,35,11.80
2006,06,12,05,36,11.80
2006,06,12,05,37,11.80
2006,06,12,05,38,11.80
2006,06,12,05,39,11.80
2006,06,12,05,40,11.80
2006,06,12,05,41,11.80
2006,06,12,05,42,11.90
2006,06,12,05,43,11.90
2006,06,12,05,44,11.90
2006,06,12,05,45,11.90
2006,06,12,05,46,11.90
2006,06,12,05,47,11.90
2006,06,12,05,48,11.90
2006,06,12,05,49,11.90
2006,06,12,05,50,11.90
2006,06,12,05,51,11.90
2006,06,12,05,52,12.00
2006,06,12,05,53,12.00
2006,06,12,05,54,12.00
2006,06,12,05,55,12.00
2006,06,12,05,56,12.00
2006,06,12,05,57,12.10
2006,06,12,05,58,12.10
2006,06,12,05,59,12.10
2006,06,12,06,00,12.20
2006,06,12,06,01,12.20
2006,06,12,06,02,12.20
2006,06,12,06,03,12.30
2006,06,12,06,04,12.30
2006,06,12,06,05,12.30
2006,06,12,06,06,12.30
2006,06,12,06,07,12.30
2006,06,12,06,08,12.40
2006,06,12,06,09,12.40
2006,06,12,06,10,12.50
2006,06,12,06,11,12.50
2006,06,12,06,12,12.50
2006,06,12,06,13,12.50
2006,06,12,06,14,12.50
2006,06,12,06,15,12.60
2006,06,12,06,16,12.60
2006,06,12,06,17,12.60
2006,06,12,06,18,12.60
2006,06,12,06,19,12.60
2006,06,12,06,20,12.70
2006,06,12,06,21,12.80
2006,06,12,06,22,12.80
2006,06,12,06,23,12.80
2006,06,12,06,24,12.90
2006,06,12,06,25,12.90
2006,06,12,06,26,13.00
2006,06,12,06,27,13.10
2006,06,12,06,28,13.10
2006,06,12,06,29,13.20
2006,06,12,06,30,13.20
2006,06,12,06,31,13.20
2006,06,12,06,32,13.30
2006,06,12,06,33,13.30
2006,06,12,06,34,13.30
2006,06,12,06,35,13.30
2006,06,12,06,36,13.40
2006,06,12,06,37,13.40
2006,06,12,06,38,13.50
2006,06,12,06,39,13.50
2006,06,12,06,40,13.60
2006,06,12,06,41,13.70
2006,06,12,06,42,13.70
2006,06,12,06,43,13.70
2006,06,12,06,44,13.80
2006,06,12,06,45,13.80
2006,06,12,06,46,13.90
2006,06,12,06,47,13.90
2006,06,12,06,48,13.90
2006,06,12,06,49,14.00
2006,06,12,06,50,14.00
2006,06,12,06,51,14.00
2006,06,12,06,52,14.10
2006,06,12,06,53,14.10
2006,06,12,06,54,14.20
2006,06,12,06,55,14.20
2006,06,12,06,56,14.40
2006,06,12,06,57,14.50
2006,06,12,06,58,14.60
2006,06,12,06,59,14.70
2006,06,12,07,00,14.80
2006,06,12,07,01,14.90
2006,06,12,07,02,15.00
2006,06,12,07,03,15.10
2006,06,12,07,04,15.10
2006,06,12,07,05,15.20
2006,06,12,07,06,15.30
2006,06,12,07,07,15.30
2006,06,12,07,08,15.50
2006,06,12,07,09,15.50
2006,06,12,07,10,15.70
2006,06,12,07,11,15.80
2006,06,12,07,12,15.90
2006,06,12,07,13,16.00
2006,06,12,07,14,16.10
2006,06,12,07,15,16.10
2006,06,12,07,16,16.20
2006,06,12,07,17,16.20
2006,06,12,07,18,16.20
2006,06,12,07,19,16.30
2006,06,12,07,20,16.30
2006,06,12,07,21,16.40
2006,06,12,07,22,16.40
2006,06,12,07,23,16.50
2006,06,12,07,24,16.60
2006,06,12,07,25,16.70
2006,06,12,07,26,16.70
2006,06,12,07,27,16.80
2006,06,12,07,28,17.00
2006,06,12,07,29,17.00
2006,06,12,07,30,17.10
2006,06,12,07,31,17.20
2006,06,12,07,32,17.30
2006,06,12,07,33,17.30
2006,06,12,07,34,17.30
2006,06,12,07,35,17.40
2006,06,12,07,36,17.50
2006,06,12,07,37,17.60
2006,06,12,07,38,17.70
2006,06,12,07,39,17.80
2006,06,12,07,40,17.90
2006,06,12,07,41,17.90
2006,06,12,07,42,18.10
2006,06,12,07,43,18.10
2006,06,12,07,44,18.20
2006,06,12,07,45,18.20
2006,06,12,07,46,18.20
2006,06,12,07,47,18.20
2006,06,12,07,48,18.30
2006,06,12,07,49,18.30
2006,06,12,07,50,18.30
2006,06,12,07,51,18.30
2006,06,12,07,52,18.30
2006,06,12,07,53,18.30
2006,06,12,07,54,18.30
2006,06,12,07,55,18.20
2006,06,12,07,56,18.20
2006,06,12,07,57,18.20
2006,06,12,07,58,18.20
2006,06,12,07,59,18.20
2006,06,12,08,00,18.20
2006,06,12,08,01,18.20
2006,06,12,08,02,18.10
2006,06,12,08,03,18.10
2006,06,12,08,04,18.20
2006,06,12,08,05,18.20
2006,06,12,08,06,18.20
2006,06,12,08,07,18.20
2006,06,12,08,08,18.20
2006,06,12,08,09,18.20
2006,06,12,08,10,18.20
2006,06,12,08,11,18.20
2006,06,12,08,12,18.30
2006,06,12,08,13,18.40
2006,06,12,08,14,18.40
2006,06,12,08,15,18.40
2006,06,12,08,16,18.40
2006,06,12,08,17,18.50
2006,06,12,08,18,18.50
2006,06,12,08,19,18.50
2006,06,12,08,20,18.50
2006,06,12,08,21,18.50
2006,06,12,08,22,18.60
2006,06,12,08,23,18.60
2006,06,12,08,24,18.60
2006,06,12,08,25,18.70
2006,06,12,08,26,18.80
2006,06,12,08,27,18.90
2006,06,12,08,28,18.90
2006,06,12,08,29,18.90
2006,06,12,08,30,19.00
2006,06,12,08,31,19.10
2006,06,12,08,32,19.10
2006,06,12,08,33,19.10
2006,06,12,08,34,19.10
2006,06,12,08,35,19.10
2006,06,12,08,36,19.20
2006,06,12,08,37,19.20
2006,06,12,08,38,19.20
2006,06,12,08,39,19.30
2006,06,12,08,40,19.30
2006,06,12,08,41,19.30
2006,06,12,08,42,19.30
2006,06,12,08,43,19.40
2006,06,12,08,44,19.40
2006,06,12,08,45,19.40
2006,06,12,08,46,19.40
2006,06,12,08,47,19.40
2006,06,12,08,48,19.40
2006,06,12,08,49,19.50
2006,06,12,08,50,19.50
2006,06,12,08,51,19.60
2006,06,12,08,52,19.60
2006,06,12,08,53,19.70
2006,06,12,08,54,19.70
2006,06,12,08,55,19.70
2006,06,12,08,56,19.70
2006,06,12,08,57,19.80
2006,06,12,08,58,19.80
2006,06,12,08,59,19.90
2006,06,12,09,00,20.00
2006,06,12,09,01,20.10
2006,06,12,09,02,20.20
2006,06,12,09,03,20.30
2006,06,12,09,04,20.30
2006,06,12,09,05,20.30
2006,06,12,09,06,20.40
2006,06,12,09,07,20.40
2006,06,12,09,08,20.40
2006,06,12,09,09,20.40
2006,06,12,09,10,20.40
2006,06,12,09,11,20.30
2006,06,12,09,12,20.30
2006,06,12,09,13,20.20
2006,06,12,09,14,20.20
2006,06,12,09,15,20.20
2006,06,12,09,16,20.20
2006,06,12,09,17,20.30
2006,06,12,09,18,20.30
2006,06,12,09,19,20.30
2006,06,12,09,20,20.40
2006,06,12,09,21,20.40
2006,06,12,09,22,20.40
2006,06,12,09,23,20.50
2006,06,12,09,24,20.50
2006,06,12,09,25,20.60
2006,06,12,09,26,20.60
2006,06,12,09,27,20.60
2006,06,12,09,28,20.60
2006,06,12,09,29,20.60
2006,06,12,09,30,20.60
2006,06,12,09,31,20.70
2006,06,12,09,32,20.70
2006,06,12,09,33,20.70
2006,06,12,09,34,20.70
2006,06,12,09,35,20.70
2006,06,12,09,36,20.70
2006,06,12,09,37,20.90
2006,06,12,09,38,21.00
2006,06,12,09,39,21.00
2006,06,12,09,40,21.10
2006,06,12,09,41,21.10
2006,06,12,09,42,21.10
2006,06,12,09,43,21.20
2006,06,12,09,44,21.10
2006,06,12,09,45,21.10
2006,06,12,09,46,21.10
2006,06,12,09,47,21.10
2006,06,12,09,48,21.10
2006,06,12,09,49,21.10
2006,06,12,09,50,21.10
2006,06,12,09,51,21.20
2006,06,12,09,52,21.20
2006,06,12,09,53,21.20
2006,06,12,09,54,21.20
2006,06,12,09,55,21.10
2006,06,12,09,56,21.10
2006,06,12,09,57,21.20
2006,06,12,09,58,21.20
2006,06,12,09,59,21.20
2006,06,12,10,00,21.20
2006,06,12,10,01,21.20
2006,06,12,10,02,21.20
2006,06,12,10,03,21.20
2006,06,12,10,04,21.20
2006,06,12,10,05,21.20
2006,06,12,10,06,21.20
2006,06,12,10,07,21.30
2006,06,12,10,08,21.30
2006,06,12,10,09,21.40
2006,06,12,10,10,21.50
2006,06,12,10,11,21.40
2006,06,12,10,12,21.40
2006,06,12,10,13,21.30
2006,06,12,10,14,21.30
2006,06,12,10,15,21.30
2006,06,12,10,16,21.30
2006,06,12,10,17,21.30
2006,06,12,10,18,21.30
2006,06,12,10,19,21.40
2006,06,12,10,20,21.50
2006,06,12,10,21,21.60
2006,06,12,10,22,21.60
2006,06,12,10,23,21.60
2006,06,12,10,24,21.60
2006,06,12,10,25,21.60
2006,06,12,10,26,21.60
2006,06,12,10,27,21.60
2006,06,12,10,28,21.60
2006,06,12,10,29,21.60
2006,06,12,10,30,21.60
2006,06,12,10,31,21.60
2006,06,12,10,32,21.50
2006,06,12,10,33,21.40
2006,06,12,10,34,21.40
2006,06,12,10,35,21.60
2006,06,12,10,36,21.60
2006,06,12,10,37,21.60
2006,06,12,10,38,21.60
2006,06,12,10,39,21.60
2006,06,12,10,40,21.60
2006,06,12,10,41,21.60
2006,06,12,10,42,21.60
2006,06,12,10,43,21.60
2006,06,12,10,44,21.60
2006,06,12,10,45,21.60
2006,06,12,10,46,21.60
2006,06,12,10,47,21.60
2006,06,12,10,48,21.60
2006,06,12,10,49,21.60
2006,06,12,10,50,21.60
2006,06,12,10,51,21.60
2006,06,12,10,52,21.70
2006,06,12,10,53,21.70
2006,06,12,10,54,21.80
2006,06,12,10,55,21.90
2006,06,12,10,56,21.90
2006,06,12,10,57,21.90
2006,06,12,10,58,21.90
2006,06,12,10,59,21.90
2006,06,12,11,00,21.90
2006,06,12,11,01,21.90
2006,06,12,11,02,21.80
2006,06,12,11,03,21.90
2006,06,12,11,04,21.90
2006,06,12,11,05,22.00
2006,06,12,11,06,22.10
2006,06,12,11,07,22.20
2006,06,12,11,08,22.20
2006,06,12,11,09,22.30
2006,06,12,11,10,22.40
2006,06,12,11,11,22.50
2006,06,12,11,12,22.50
2006,06,12,11,13,22.50
2006,06,12,11,14,22.50
2006,06,12,11,15,22.50
2006,06,12,11,16,22.50
2006,06,12,11,17,22.60
2006,06,12,11,18,22.70
2006,06,12,11,19,22.80
2006,06,12,11,20,22.90
2006,06,12,11,21,22.90
2006,06,12,11,22,22.90
2006,06,12,11,23,22.80
2006,06,12,11,24,22.70
2006,06,12,11,25,22.60
2006,06,12,11,26,22.60
2006,06,12,11,27,22.40
2006,06,12,11,28,22.20
2006,06,12,11,29,22.30
2006,06,12,11,30,22.20
2006,06,12,11,31,22.20
2006,06,12,11,32,22.20
2006,06,12,11,33,22.30
2006,06,12,11,34,22.30
2006,06,12,11,35,22.40
2006,06,12,11,36,22.50
2006,06,12,11,37,22.60
2006,06,12,11,38,22.60
2006,06,12,11,39,22.60
2006,06,12,11,40,22.60
2006,06,12,11,41,22.50
2006,06,12,11,42,22.60
2006,06,12,11,43,22.60
2006,06,12,11,44,22.60
2006,06,12,11,45,22.60
2006,06,12,11,46,22.60
2006,06,12,11,47,22.50
2006,06,12,11,48,22.40
2006,06,12,11,49,22.40
2006,06,12,11,50,22.40
2006,06,12,11,51,22.40
2006,06,12,11,52,22.50
2006,06,12,11,53,22.60
2006,06,12,11,54,22.60
2006,06,12,11,55,22.60
2006,06,12,11,56,22.60
2006,06,12,11,57,22.70
2006,06,12,11,58,22.70
2006,06,12,11,59,22.90
2006,06,12,12,00,22.90
2006,06,12,12,01,22.90
2006,06,12,12,02,22.90
2006,06,12,12,03,22.90
2006,06,12,12,04,22.90
2006,06,12,12,05,22.80
2006,06,12,12,06,22.80
2006,06,12,12,07,22.80
2006,06,12,12,08,22.80
2006,06,12,12,09,22.80
2006,06,12,12,10,22.90
2006,06,12,12,11,23.00
2006,06,12,12,12,23.10
2006,06,12,12,13,23.00
2006,06,12,12,14,22.90
2006,06,12,12,15,22.80
2006,06,12,12,16,22.60
2006,06,12,12,17,22.60
2006,06,12,12,18,22.80
2006,06,12,12,19,22.80
2006,06,12,12,20,23.00
2006,06,12,12,21,23.10
2006,06,12,12,22,23.30
2006,06,12,12,23,23.30
2006,06,12,12,24,23.30
2006,06,12,12,25,23.30
2006,06,12,12,26,23.30
2006,06,12,12,27,23.30
2006,06,12,12,28,23.30
2006,06,12,12,29,23.30
2006,06,12,12,30,23.30
2006,06,12,12,31,23.40
2006,06,12,12,32,23.40
2006,06,12,12,33,23.50
2006,06,12,12,34,23.60
2006,06,12,12,35,23.70
2006,06,12,12,36,23.70
2006,06,12,12,37,23.70
2006,06,12,12,38,23.70
2006,06,12,12,39,23.60
2006,06,12,12,40,23.60
2006,06,12,12,41,23.60
2006,06,12,12,42,23.60
2006,06,12,12,43,23.70
2006,06,12,12,44,23.70
2006,06,12,12,45,23.80
2006,06,12,12,46,23.80
2006,06,12,12,47,23.90
2006,06,12,12,48,23.90
2006,06,12,12,49,23.90
2006,06,12,12,50,23.90
2006,06,12,12,51,23.70
2006,06,12,12,52,23.60
2006,06,12,12,53,23.50
2006,06,12,12,54,23.40
2006,06,12,12,55,23.40
2006,06,12,12,56,23.40
2006,06,12,12,57,23.40
2006,06,12,12,58,23.40
2006,06,12,12,59,23.30
2006,06,12,13,00,23.20
2006,06,12,13,01,23.20
2006,06,12,13,02,23.30
2006,06,12,13,03,23.40
2006,06,12,13,04,23.30
2006,06,12,13,05,23.30
2006,06,12,13,06,23.30
2006,06,12,13,07,22.70
2006,06,12,13,08,22.60
2006,06,12,13,09,22.40
2006,06,12,13,10,22.30
2006,06,12,13,11,22.20
2006,06,12,13,12,22.10
2006,06,12,13,13,22.20
2006,06,12,13,14,22.30
2006,06,12,13,15,22.50
2006,06,12,13,16,22.60
2006,06,12,13,17,22.60
2006,06,12,13,18,22.80
2006,06,12,13,19,23.00
2006,06,12,13,20,23.10
2006,06,12,13,21,23.20
2006,06,12,13,22,23.20
2006,06,12,13,23,23.20
2006,06,12,13,24,23.30
2006,06,12,13,25,23.40
2006,06,12,13,26,23.60
2006,06,12,13,27,23.60
2006,06,12,13,28,23.70
2006,06,12,13,29,23.70
2006,06,12,13,30,23.70
2006,06,12,13,31,23.60
2006,06,12,13,32,23.60
2006,06,12,13,33,23.70
2006,06,12,13,34,23.90
2006,06,12,13,35,23.90
2006,06,12,13,36,24.00
2006,06,12,13,37,24.10
2006,06,12,13,38,24.10
2006,06,12,13,39,24.00
2006,06,12,13,40,23.90
2006,06,12,13,41,23.90
2006,06,12,13,42,23.90
2006,06,12,13,43,23.90
2006,06,12,13,44,24.00
2006,06,12,13,45,23.90
2006,06,12,13,46,23.80
2006,06,12,13,47,23.70
2006,06,12,13,48,23.70
2006,06,12,13,49,23.80
2006,06,12,13,50,23.90
2006,06,12,13,51,23.90
2006,06,12,13,52,23.80
2006,06,12,13,53,23.70
2006,06,12,13,54,23.70
2006,06,12,13,55,23.60
2006,06,12,13,56,23.60
2006,06,12,13,57,23.60
2006,06,12,13,58,23.60
2006,06,12,13,59,23.70
2006,06,12,14,00,23.70
2006,06,12,14,01,23.70
2006,06,12,14,02,23.60
2006,06,12,14,03,23.50
2006,06,12,14,04,23.30
2006,06,12,14,05,23.20
2006,06,12,14,06,23.10
2006,06,12,14,07,22.90
2006,06,12,14,08,22.90
2006,06,12,14,09,22.90
2006,06,12,14,10,22.90
2006,06,12,14,11,22.90
2006,06,12,14,12,22.90
2006,06,12,14,13,22.90
2006,06,12,14,14,23.00
2006,06,12,14,15,23.10
2006,06,12,14,16,23.20
2006,06,12,14,17,23.20
2006,06,12,14,18,23.30
2006,06,12,14,19,23.20
2006,06,12,14,20,23.30
2006,06,12,14,21,23.30
2006,06,12,14,22,23.30
2006,06,12,14,23,23.30
2006,06,12,14,24,23.20
2006,06,12,14,25,23.20
2006,06,12,14,26,23.10
2006,06,12,14,27,23.10
2006,06,12,14,28,23.10
2006,06,12,14,29,23.10
2006,06,12,14,30,23.00
2006,06,12,14,31,22.80
2006,06,12,14,32,22.50
2006,06,12,14,33,22.30
2006,06,12,14,34,22.20
2006,06,12,14,35,22.10
2006,06,12,14,36,22.10
2006,06,12,14,37,21.80
2006,06,12,14,38,21.60
2006,06,12,14,39,21.60
2006,06,12,14,40,21.40
2006,06,12,14,41,21.20
2006,06,12,14,42,21.00
2006,06,12,14,43,20.70
2006,06,12,14,44,20.40
2006,06,12,14,45,20.20
2006,06,12,14,46,20.00
2006,06,12,14,47,19.90
2006,06,12,14,48,19.80
2006,06,12,14,49,19.80
2006,06,12,14,50,19.70
2006,06,12,14,51,19.70
2006,06,12,14,52,19.70
2006,06,12,14,53,19.70
2006,06,12,14,54,19.60
2006,06,12,14,55,19.50
2006,06,12,14,56,19.50
2006,06,12,14,57,19.40
2006,06,12,14,58,19.40
2006,06,12,14,59,19.50
2006,06,12,15,00,19.50
2006,06,12,15,01,19.60
2006,06,12,15,02,19.80
2006,06,12,15,03,20.00
2006,06,12,15,04,20.20
2006,06,12,15,05,20.20
2006,06,12,15,06,20.20
2006,06,12,15,07,20.40
2006,06,12,15,08,20.50
2006,06,12,15,09,20.60
2006,06,12,15,10,20.60
2006,06,12,15,11,20.60
2006,06,12,15,12,20.60
2006,06,12,15,13,20.50
2006,06,12,15,14,20.40
2006,06,12,15,15,20.40
2006,06,12,15,16,20.40
2006,06,12,15,17,20.50
2006,06,12,15,18,20.60
2006,06,12,15,19,20.70
2006,06,12,15,20,20.80
2006,06,12,15,21,20.80
2006,06,12,15,22,20.80
2006,06,12,15,23,20.90
2006,06,12,15,24,20.90
2006,06,12,15,25,20.90
2006,06,12,15,26,20.90
2006,06,12,15,27,20.90
2006,06,12,15,28,20.90
2006,06,12,15,29,21.00
2006,06,12,15,30,21.00
2006,06,12,15,31,21.00
2006,06,12,15,32,21.00
2006,06,12,15,33,21.00
2006,06,12,15,34,21.10
2006,06,12,15,35,21.10
2006,06,12,15,36,21.10
2006,06,12,15,37,21.10
2006,06,12,15,38,21.20
2006,06,12,15,39,21.30
2006,06,12,15,40,21.30
2006,06,12,15,41,21.40
2006,06,12,15,42,21.40
2006,06,12,15,43,21.40
2006,06,12,15,44,21.50
2006,06,12,15,45,21.60
2006,06,12,15,46,21.60
2006,06,12,15,47,21.60
2006,06,12,15,48,21.60
2006,06,12,15,49,21.60
2006,06,12,15,50,21.60
2006,06,12,15,51,21.50
2006,06,12,15,52,21.40
2006,06,12,15,53,21.40
2006,06,12,15,54,21.30
2006,06,12,15,55,21.20
2006,06,12,15,56,21.20
2006,06,12,15,57,21.20
2006,06,12,15,58,21.20
2006,06,12,15,59,21.20
2006,06,12,16,00,21.20
2006,06,12,16,01,21.20
2006,06,12,16,02,21.20
2006,06,12,16,03,21.30
2006,06,12,16,04,21.30
2006,06,12,16,05,21.30
2006,06,12,16,06,21.30
2006,06,12,16,07,21.30
2006,06,12,16,08,21.40
2006,06,12,16,09,21.50
2006,06,12,16,10,21.60
2006,06,12,16,11,21.60
2006,06,12,16,12,21.60
2006,06,12,16,13,21.60
2006,06,12,16,14,21.60
2006,06,12,16,15,21.60
2006,06,12,16,16,21.50
2006,06,12,16,17,21.40
2006,06,12,16,18,21.30
2006,06,12,16,19,21.30
2006,06,12,16,20,21.20
2006,06,12,16,21,21.20
2006,06,12,16,22,21.30
2006,06,12,16,23,21.30
2006,06,12,16,24,21.40
2006,06,12,16,25,21.40
2006,06,12,16,26,21.40
2006,06,12,16,27,21.30
2006,06,12,16,28,21.20
2006,06,12,16,29,21.10
2006,06,12,16,30,21.00
2006,06,12,16,31,20.70
2006,06,12,16,32,20.60
2006,06,12,16,33,20.50
2006,06,12,16,34,20.10
2006,06,12,16,35,19.90
2006,06,12,16,36,19.80
2006,06,12,16,37,19.80
2006,06,12,16,38,19.80
2006,06,12,16,39,19.80
2006,06,12,16,40,19.80
2006,06,12,16,41,19.90
2006,06,12,16,42,19.90
2006,06,12,16,43,19.90
2006,06,12,16,44,19.80
2006,06,12,16,45,19.80
2006,06,12,16,46,19.80
2006,06,12,16,47,19.80
2006,06,12,16,48,19.80
2006,06,12,16,49,19.80
2006,06,12,16,50,19.80
2006,06,12,16,51,19.80
2006,06,12,16,52,19.80
2006,06,12,16,53,19.80
2006,06,12,16,54,19.80
2006,06,12,16,55,19.80
2006,06,12,16,56,19.90
2006,06,12,16,57,19.90
2006,06,12,16,58,19.90
2006,06,12,16,59,19.90
2006,06,12,17,00,19.90
2006,06,12,17,01,19.90
2006,06,12,17,02,19.90
2006,06,12,17,03,19.90
2006,06,12,17,04,19.80
2006,06,12,17,05,19.80
2006,06,12,17,06,19.80
2006,06,12,17,07,19.80
2006,06,12,17,08,19.80
2006,06,12,17,09,19.90
2006,06,12,17,10,19.90
2006,06,12,17,11,19.90
2006,06,12,17,12,19.90
2006,06,12,17,13,19.80
2006,06,12,17,14,19.80
2006,06,12,17,15,19.80
2006,06,12,17,16,19.80
2006,06,12,17,17,19.80
2006,06,12,17,18,19.90
2006,06,12,17,19,19.90